| time (UTC) | temp C | wind direction | speed KPH | gust KPH | rain 1hr cm | rain 24hr cm | rain mn cm | humidity % | barometer mb |
| 20260507040536 | 5 | 300 | 1.6 | 6.4 | 0.00 | 1.68 | 0.00 | 95 | 1012.7 |
| 20260507040051 | 5 | 293 | 0.0 | 4.8 | 0.00 | 1.68 | 0.00 | 95 | 1012.6 |
| 20260507035535 | 5 | 296 | 1.6 | 3.2 | 0.00 | 1.78 | 1.68 | 95 | 1012.7 |
| 20260507035035 | 5 | 296 | 0.0 | 4.8 | 0.00 | 1.78 | 1.68 | 95 | 1012.6 |
| 20260507034544 | 5 | 297 | 0.0 | 4.8 | 0.00 | 1.78 | 1.68 | 95 | 1012.5 |
| 20260507034035 | 5 | 299 | 1.6 | 4.8 | 0.00 | 1.78 | 1.68 | 95 | 1012.5 |
| 20260507033538 | 5 | 331 | 0.0 | 4.8 | 0.00 | 1.78 | 1.68 | 95 | 1012.5 |
| 20260507033050 | 5 | 0 | 0.0 | 3.2 | 0.00 | 1.78 | 1.68 | 95 | 1012.4 |
| 20260507032535 | 5 | 0 | 0.0 | 3.2 | 0.00 | 1.78 | 1.68 | 95 | 1012.4 |
| 20260507032034 | 5 | 0 | 0.0 | 3.2 | 0.00 | 1.78 | 1.68 | 95 | 1012.5 |
| 20260507031548 | 5 | 0 | 0.0 | 3.2 | 0.00 | 1.78 | 1.68 | 95 | 1012.4 |
| 20260507031035 | 5 | 0 | 0.0 | 3.2 | 0.00 | 1.78 | 1.68 | 94 | 1012.2 |
| 20260507030535 | 5 | 0 | 0.0 | 4.8 | 0.00 | 1.78 | 1.68 | 94 | 1012.3 |
| 20260507030049 | 5 | 0 | 0.0 | 4.8 | 0.00 | 1.78 | 1.68 | 94 | 1012.4 |
| 20260507025534 | 5 | 0 | 0.0 | 4.8 | 0.00 | 1.96 | 1.68 | 94 | 1012.5 |
| 20260507025035 | 5 | 288 | 0.0 | 4.8 | 0.00 | 1.96 | 1.68 | 94 | 1012.6 |
| 20260507024545 | 5 | 0 | 1.6 | 6.4 | 0.00 | 1.96 | 1.68 | 94 | 1012.6 |
| 20260507024036 | 5 | 0 | 0.0 | 6.4 | 0.00 | 1.96 | 1.68 | 94 | 1012.4 |
| 20260507023535 | 5 | 300 | 0.0 | 6.4 | 0.00 | 1.96 | 1.68 | 93 | 1012.4 |
| 20260507023046 | 5 | 256 | 1.6 | 6.4 | 0.00 | 1.96 | 1.68 | 94 | 1012.4 |
| 20260507022535 | 6 | 0 | 0.0 | 1.6 | 0.00 | 1.96 | 1.68 | 93 | 1012.3 |
| 20260507022035 | 6 | 0 | 0.0 | 4.8 | 0.00 | 1.96 | 1.68 | 93 | 1012.4 |
| 20260507021545 | 6 | 0 | 0.0 | 6.4 | 0.00 | 1.96 | 1.68 | 93 | 1012.5 |
| 20260507021035 | 6 | 296 | 0.0 | 6.4 | 0.00 | 1.96 | 1.68 | 93 | 1012.5 |
| 20260507020536 | 6 | 0 | 0.0 | 3.2 | 0.00 | 1.96 | 1.68 | 93 | 1012.5 |
| 20260507020039 | 6 | 0 | 0.0 | 6.4 | 0.00 | 1.96 | 1.68 | 92 | 1012.5 |
| 20260507015534 | 6 | 0 | 1.6 | 8.0 | 0.00 | 2.08 | 1.68 | 91 | 1012.4 |
| 20260507015035 | 6 | 347 | 0.0 | 9.7 | 0.00 | 2.08 | 1.68 | 92 | 1012.4 |
| 20260507014550 | 6 | 291 | 1.6 | 11.3 | 0.00 | 2.08 | 1.68 | 92 | 1012.5 |
| 20260507014035 | 6 | 320 | 0.0 | 11.3 | 0.00 | 2.08 | 1.68 | 92 | 1012.5 |
| 20260507013535 | 6 | 345 | 3.2 | 11.3 | 0.00 | 2.08 | 1.68 | 93 | 1012.5 |
| 20260507013108 | 7 | 287 | 3.2 | 11.3 | 0.00 | 2.08 | 1.68 | 93 | 1012.6 |
| 20260507012535 | 7 | 98 | 0.0 | 3.2 | 0.00 | 2.08 | 1.68 | 94 | 1012.4 |
| 20260507012034 | 7 | 0 | 0.0 | 3.2 | 0.00 | 2.08 | 1.68 | 94 | 1012.3 |
| 20260507011545 | 7 | 0 | 0.0 | 1.6 | 0.00 | 2.08 | 1.68 | 93 | 1012.3 |
| 20260507011035 | 7 | 0 | 0.0 | 0.0 | 0.00 | 2.08 | 1.68 | 93 | 1012.1 |
| 20260507010535 | 7 | 0 | 0.0 | 0.0 | 0.00 | 2.08 | 1.68 | 93 | 1012.2 |
| 20260507010044 | 7 | 0 | 0.0 | 0.0 | 0.00 | 2.08 | 1.68 | 93 | 1012.0 |
| 20260507005535 | 7 | 0 | 0.0 | 0.0 | 0.00 | 2.31 | 1.68 | 92 | 1011.9 |
| 20260507005034 | 7 | 0 | 0.0 | 0.0 | 0.00 | 2.31 | 1.68 | 92 | 1011.9 |
| 20260507004550 | 7 | 0 | 0.0 | 0.0 | 0.00 | 2.31 | 1.68 | 92 | 1011.7 |
| 20260507004035 | 7 | 0 | 0.0 | 0.0 | 0.00 | 2.31 | 1.68 | 92 | 1011.6 |
| 20260507003535 | 7 | 0 | 0.0 | 4.8 | 0.00 | 2.31 | 1.68 | 92 | 1011.7 |
| 20260507003040 | 7 | 0 | 0.0 | 4.8 | 0.00 | 2.31 | 1.68 | 92 | 1011.7 |
| 20260507002535 | 7 | 101 | 0.0 | 4.8 | 0.00 | 2.31 | 1.68 | 91 | 1011.7 |
| 20260507002036 | 7 | 0 | 0.0 | 0.0 | 0.00 | 2.31 | 1.68 | 92 | 1011.5 |
| 20260507001604 | 7 | 0 | 0.0 | 0.0 | 0.00 | 2.31 | 1.68 | 91 | 1011.5 |
| 20260507001035 | 7 | 0 | 0.0 | 0.0 | 0.00 | 2.31 | 1.68 | 91 | 1011.4 |
| 20260507000535 | 7 | 0 | 0.0 | 0.0 | 0.00 | 2.31 | 1.68 | 91 | 1011.4 |
| 20260507000039 | 7 | 0 | 0.0 | 0.0 | 0.00 | 2.31 | 1.68 | 91 | 1011.3 |
| 20260506235537 | 7 | 0 | 0.0 | 0.0 | 0.00 | 2.41 | 1.68 | 91 | 1011.4 |
| 20260506235035 | 7 | 0 | 0.0 | 0.0 | 0.00 | 2.41 | 1.68 | 90 | 1011.4 |
| 20260506234537 | 7 | 0 | 0.0 | 0.0 | 0.00 | 2.41 | 1.68 | 90 | 1011.2 |
| 20260506234036 | 7 | 0 | 0.0 | 0.0 | 0.00 | 2.41 | 1.68 | 90 | 1011.1 |
| 20260506233537 | 7 | 0 | 0.0 | 0.0 | 0.00 | 2.41 | 1.68 | 90 | 1011.2 |
| 20260506233047 | 7 | 0 | 0.0 | 0.0 | 0.00 | 2.41 | 1.68 | 89 | 1011.1 |
| 20260506232535 | 7 | 0 | 0.0 | 0.0 | 0.00 | 2.41 | 1.68 | 89 | 1011.0 |
| 20260506232035 | 7 | 0 | 0.0 | 0.0 | 0.00 | 2.41 | 1.68 | 89 | 1010.9 |
| 20260506231547 | 7 | 0 | 0.0 | 0.0 | 0.00 | 2.41 | 1.68 | 89 | 1010.9 |
| 20260506231035 | 7 | 0 | 0.0 | 0.0 | 0.00 | 2.41 | 1.68 | 89 | 1011.0 |
| 20260506230535 | 7 | 0 | 0.0 | 0.0 | 0.00 | 2.41 | 1.68 | 89 | 1010.9 |
| 20260506230042 | 7 | 0 | 0.0 | 0.0 | 0.00 | 2.41 | 1.68 | 89 | 1010.8 |
| 20260506225535 | 7 | 0 | 0.0 | 0.0 | 0.00 | 2.41 | 1.68 | 89 | 1010.7 |
| 20260506225035 | 7 | 0 | 0.0 | 0.0 | 0.00 | 2.41 | 1.68 | 89 | 1010.7 |
| 20260506224540 | 7 | 0 | 0.0 | 4.8 | 0.00 | 2.41 | 1.68 | 89 | 1010.6 |
| 20260506224034 | 7 | 0 | 0.0 | 4.8 | 0.00 | 2.41 | 1.68 | 88 | 1010.6 |
| 20260506223535 | 7 | 94 | 0.0 | 3.2 | 0.00 | 2.41 | 1.68 | 88 | 1010.7 |
| 20260506223102 | 7 | 0 | 0.0 | 0.0 | 0.00 | 2.41 | 1.68 | 88 | 1010.7 |
| 20260506222535 | 7 | 0 | 0.0 | 0.0 | 0.00 | 2.41 | 1.68 | 88 | 1010.5 |
| 20260506222036 | 7 | 0 | 0.0 | 0.0 | 0.00 | 2.41 | 1.68 | 88 | 1010.7 |
| 20260506221545 | 7 | 0 | 0.0 | 0.0 | 0.00 | 2.41 | 1.68 | 88 | 1010.7 |
| 20260506221035 | 7 | 0 | 0.0 | 0.0 | 0.00 | 2.41 | 1.68 | 87 | 1010.7 |
| 20260506220535 | 7 | 0 | 0.0 | 0.0 | 0.00 | 2.41 | 1.68 | 87 | 1010.8 |
| 20260506220045 | 7 | 0 | 0.0 | 0.0 | 0.00 | 2.41 | 1.68 | 87 | 1010.9 |
| 20260506215535 | 7 | 0 | 0.0 | 0.0 | 0.00 | 2.41 | 1.68 | 87 | 1010.9 |
| 20260506215035 | 7 | 0 | 0.0 | 0.0 | 0.00 | 2.41 | 1.68 | 87 | 1010.9 |
| 20260506214544 | 7 | 0 | 0.0 | 4.8 | 0.00 | 2.41 | 1.68 | 86 | 1010.9 |
| 20260506214034 | 7 | 0 | 0.0 | 4.8 | 0.00 | 2.41 | 1.68 | 86 | 1010.8 |
| 20260506213534 | 7 | 304 | 0.0 | 4.8 | 0.00 | 2.41 | 1.68 | 87 | 1010.6 |
| 20260506213042 | 7 | 0 | 0.0 | 4.8 | 0.00 | 2.41 | 1.68 | 87 | 1010.7 |
| 20260506212535 | 7 | 0 | 0.0 | 4.8 | 0.00 | 2.41 | 1.68 | 86 | 1010.6 |
| 20260506212036 | 7 | 307 | 0.0 | 3.2 | 0.00 | 2.41 | 1.68 | 87 | 1010.6 |
| 20260506211541 | 7 | 0 | 0.0 | 3.2 | 0.00 | 2.41 | 1.68 | 87 | 1010.5 |
| 20260506211036 | 7 | 0 | 0.0 | 3.2 | 0.00 | 2.41 | 1.68 | 87 | 1010.4 |
| 20260506210536 | 7 | 0 | 0.0 | 4.8 | 0.00 | 2.41 | 1.68 | 86 | 1010.4 |
| 20260506210041 | 7 | 0 | 0.0 | 4.8 | 0.00 | 2.41 | 1.68 | 87 | 1010.5 |
| 20260506205534 | 7 | 0 | 0.0 | 4.8 | 0.00 | 2.41 | 1.68 | 87 | 1010.6 |
| 20260506205034 | 7 | 0 | 0.0 | 3.2 | 0.00 | 2.41 | 1.68 | 87 | 1010.5 |
| 20260506204545 | 7 | 0 | 0.0 | 4.8 | 0.00 | 2.41 | 1.68 | 87 | 1010.6 |
| 20260506204034 | 7 | 0 | 1.6 | 4.8 | 0.00 | 2.41 | 1.68 | 87 | 1010.6 |
| 20260506203534 | 7 | 213 | 0.0 | 4.8 | 0.00 | 2.41 | 1.68 | 87 | 1010.5 |
| 20260506203047 | 7 | 283 | 1.6 | 4.8 | 0.00 | 2.41 | 1.68 | 87 | 1010.6 |
| 20260506202534 | 7 | 344 | 1.6 | 9.7 | 0.00 | 2.41 | 1.68 | 87 | 1010.5 |
| 20260506202034 | 7 | 330 | 1.6 | 11.3 | 0.00 | 2.41 | 1.68 | 87 | 1010.5 |
| 20260506201545 | 7 | 293 | 1.6 | 11.3 | 0.00 | 2.41 | 1.68 | 87 | 1010.5 |
| 20260506201038 | 7 | 348 | 1.6 | 8.0 | 0.00 | 2.41 | 1.68 | 87 | 1010.5 |
| 20260506200535 | 7 | 282 | 3.2 | 9.7 | 0.00 | 2.41 | 1.68 | 88 | 1010.4 |
| 20260506200112 | 7 | 286 | 3.2 | 12.9 | 0.00 | 2.41 | 1.68 | 88 | 1010.2 |
| 20260506195535 | 7 | 243 | 0.0 | 12.9 | 0.00 | 2.41 | 1.68 | 89 | 1010.2 |
| 20260506195034 | 7 | 303 | 3.2 | 12.9 | 0.00 | 2.41 | 1.68 | 90 | 1010.3 |
| 20260506194555 | 7 | 0 | 0.0 | 8.0 | 0.00 | 2.41 | 1.68 | 90 | 1010.3 |
| 20260506194035 | 6 | 275 | 3.2 | 8.0 | 0.00 | 2.41 | 1.68 | 89 | 1010.4 |
| 20260506193538 | 6 | 280 | 0.0 | 12.9 | 0.00 | 2.41 | 1.68 | 90 | 1010.4 |
| 20260506193041 | 6 | 317 | 1.6 | 12.9 | 0.00 | 2.41 | 1.68 | 90 | 1010.4 |
| 20260506192535 | 6 | 290 | 0.0 | 8.0 | 0.00 | 2.41 | 1.68 | 91 | 1010.5 |
| 20260506192037 | 6 | 273 | 3.2 | 14.5 | 0.00 | 2.41 | 1.68 | 91 | 1010.5 |
| 20260506191548 | 6 | 245 | 1.6 | 14.5 | 0.00 | 2.41 | 1.68 | 92 | 1010.5 |
| 20260506191035 | 6 | 323 | 3.2 | 14.5 | 0.00 | 2.41 | 1.68 | 92 | 1010.4 |
| 20260506190534 | 6 | 307 | 4.8 | 14.5 | 0.00 | 2.41 | 1.68 | 92 | 1010.4 |
| 20260506190045 | 6 | 324 | 3.2 | 11.3 | 0.00 | 2.41 | 1.68 | 93 | 1010.3 |
| 20260506185627 | 6 | 0 | 1.6 | 12.9 | 0.00 | 2.41 | 1.68 | 94 | 1010.3 |
| 20260506185034 | 6 | 313 | 1.6 | 12.9 | 0.00 | 2.41 | 1.68 | 95 | 1010.4 |
| 20260506184548 | 6 | 327 | 1.6 | 12.9 | 0.00 | 2.41 | 1.68 | 95 | 1010.3 |
| 20260506184036 | 6 | 0 | 1.6 | 12.9 | 0.00 | 2.41 | 1.68 | 95 | 1010.4 |
| 20260506183535 | 6 | 284 | 3.2 | 12.9 | 0.00 | 2.41 | 1.68 | 95 | 1010.3 |
| 20260506183046 | 6 | 0 | 1.6 | 12.9 | 0.00 | 2.41 | 1.68 | 95 | 1010.4 |
| 20260506182534 | 6 | 304 | 1.6 | 12.9 | 0.00 | 2.41 | 1.68 | 95 | 1010.5 |
| 20260506182034 | 6 | 315 | 3.2 | 12.9 | 0.00 | 2.41 | 1.68 | 95 | 1010.5 |
| 20260506181539 | 6 | 340 | 3.2 | 16.1 | 0.00 | 2.41 | 1.68 | 95 | 1010.6 |
| 20260506181035 | 6 | 0 | 1.6 | 16.1 | 0.00 | 2.41 | 1.68 | 95 | 1010.4 |
| 20260506180536 | 6 | 322 | 3.2 | 16.1 | 0.00 | 2.41 | 1.68 | 95 | 1010.3 |
| 20260506180052 | 6 | 282 | 3.2 | 11.3 | 0.00 | 2.41 | 1.68 | 95 | 1010.1 |
| 20260506175535 | 6 | 339 | 1.6 | 12.9 | 0.00 | 2.41 | 1.68 | 95 | 1010.0 |
| 20260506175034 | 6 | 278 | 0.0 | 12.9 | 0.00 | 2.41 | 1.68 | 96 | 1010.0 |
| 20260506174547 | 6 | 287 | 3.2 | 12.9 | 0.00 | 2.41 | 1.68 | 96 | 1009.8 |
| 20260506174037 | 6 | 288 | 1.6 | 11.3 | 0.00 | 2.41 | 1.68 | 96 | 1009.7 |
| 20260506173535 | 6 | 275 | 1.6 | 12.9 | 0.00 | 2.41 | 1.68 | 96 | 1009.6 |
| 20260506173048 | 6 | 0 | 4.8 | 12.9 | 0.00 | 2.41 | 1.68 | 96 | 1009.5 |
| 20260506172535 | 6 | 312 | 4.8 | 12.9 | 0.00 | 2.41 | 1.68 | 96 | 1009.5 |
| 20260506172034 | 6 | 293 | 3.2 | 9.7 | 0.00 | 2.41 | 1.68 | 96 | 1009.5 |
| 20260506171551 | 6 | 341 | 3.2 | 6.4 | 0.00 | 2.41 | 1.68 | 96 | 1009.6 |
| 20260506171034 | 6 | 290 | 0.0 | 14.5 | 0.00 | 2.41 | 1.68 | 96 | 1009.6 |
| 20260506170534 | 6 | 292 | 1.6 | 14.5 | 0.00 | 2.41 | 1.68 | 96 | 1009.7 |
| 20260506170042 | 6 | 332 | 1.6 | 9.7 | 0.00 | 2.41 | 1.68 | 96 | 1009.6 |
| 20260506165534 | 6 | 0 | 0.0 | 14.5 | 0.00 | 2.41 | 1.68 | 96 | 1009.5 |
| 20260506165035 | 6 | 340 | 1.6 | 14.5 | 0.00 | 2.41 | 1.68 | 97 | 1009.4 |
| 20260506164539 | 6 | 293 | 3.2 | 9.7 | 0.00 | 2.41 | 1.68 | 96 | 1009.5 |
| 20260506164035 | 6 | 360 | 1.6 | 6.4 | 0.00 | 2.41 | 1.68 | 96 | 1009.3 |
| 20260506163531 | 6 | 336 | 0.0 | 8.0 | 0.00 | 2.41 | 1.68 | 97 | 1009.2 |
| 20260506163050 | 6 | 287 | 1.6 | 8.0 | 0.00 | 2.41 | 1.68 | 97 | 1009.2 |
| 20260506162534 | 6 | 0 | 0.0 | 9.7 | 0.00 | 2.41 | 1.68 | 97 | 1009.4 |
| 20260506162036 | 6 | 309 | 1.6 | 9.7 | 0.00 | 2.41 | 1.68 | 96 | 1009.5 |
| 20260506161553 | 6 | 290 | 3.2 | 8.0 | 0.00 | 2.41 | 1.68 | 97 | 1009.5 |
| 20260506161034 | 6 | 298 | 1.6 | 16.1 | 0.00 | 2.41 | 1.68 | 97 | 1009.4 |
| 20260506160532 | 6 | 298 | 1.6 | 16.1 | 0.00 | 2.41 | 1.68 | 97 | 1009.5 |
| 20260506160046 | 6 | 0 | 4.8 | 16.1 | 0.00 | 2.41 | 1.68 | 97 | 1009.4 |
| 20260506155531 | 6 | 320 | 0.0 | 4.8 | 0.00 | 2.41 | 1.68 | 97 | 1009.4 |
| 20260506155032 | 6 | 0 | 0.0 | 6.4 | 0.00 | 2.41 | 1.68 | 97 | 1009.5 |
| 20260506154543 | 6 | 286 | 0.0 | 6.4 | 0.03 | 2.41 | 1.68 | 97 | 1009.6 |
| 20260506154039 | 6 | 288 | 0.0 | 4.8 | 0.03 | 2.41 | 1.68 | 97 | 1009.6 |
| 20260506153536 | 6 | 287 | 0.0 | 12.9 | 0.03 | 2.41 | 1.68 | 97 | 1009.6 |
| 20260506153043 | 6 | 0 | 1.6 | 12.9 | 0.03 | 2.41 | 1.68 | 97 | 1009.5 |
| 20260506152536 | 6 | 288 | 3.2 | 12.9 | 0.03 | 2.41 | 1.68 | 97 | 1009.4 |
| 20260506152036 | 6 | 207 | 0.0 | 6.4 | 0.03 | 2.41 | 1.68 | 97 | 1009.6 |
| 20260506151540 | 6 | 298 | 1.6 | 6.4 | 0.03 | 2.41 | 1.68 | 97 | 1009.6 |
| 20260506151035 | 6 | 302 | 1.6 | 8.0 | 0.03 | 2.41 | 1.68 | 97 | 1009.6 |
| 20260506150535 | 6 | 0 | 0.0 | 8.0 | 0.03 | 2.41 | 1.68 | 97 | 1009.5 |
| 20260506150047 | 6 | 258 | 0.0 | 8.0 | 0.03 | 2.41 | 1.68 | 97 | 1009.6 |
| 20260506145536 | 6 | 277 | 1.6 | 4.8 | 0.03 | 2.41 | 1.68 | 97 | 1009.4 |
| 20260506145035 | 6 | 265 | 1.6 | 4.8 | 0.03 | 2.41 | 1.68 | 97 | 1009.2 |
| 20260506144544 | 6 | 290 | 1.6 | 4.8 | 0.00 | 2.39 | 1.65 | 97 | 1008.9 |
| 20260506144035 | 6 | 0 | 0.0 | 4.8 | 0.00 | 2.39 | 1.65 | 97 | 1009.0 |
| 20260506143535 | 6 | 183 | 0.0 | 4.8 | 0.00 | 2.39 | 1.65 | 97 | 1009.0 |
| 20260506143044 | 6 | 0 | 1.6 | 4.8 | 0.00 | 2.39 | 1.65 | 97 | 1009.1 |
| 20260506142536 | 6 | 0 | 0.0 | 6.4 | 0.00 | 2.39 | 1.65 | 97 | 1009.0 |
| 20260506142036 | 6 | 0 | 1.6 | 6.4 | 0.00 | 2.39 | 1.65 | 97 | 1009.1 |
| 20260506141539 | 6 | 288 | 3.2 | 6.4 | 0.00 | 2.39 | 1.65 | 97 | 1008.9 |
| 20260506141036 | 6 | 250 | 0.0 | 4.8 | 0.00 | 2.39 | 1.65 | 97 | 1009.0 |
| 20260506140536 | 6 | 315 | 0.0 | 4.8 | 0.00 | 2.39 | 1.65 | 97 | 1009.1 |
| 20260506140044 | 6 | 0 | 0.0 | 6.4 | 0.03 | 2.39 | 1.65 | 97 | 1009.1 |
| 20260506135535 | 6 | 279 | 1.6 | 6.4 | 0.03 | 2.39 | 1.65 | 97 | 1009.2 |
| 20260506135035 | 6 | 267 | 0.0 | 4.8 | 0.03 | 2.39 | 1.65 | 97 | 1009.1 |
| 20260506134610 | 6 | 260 | 1.6 | 4.8 | 0.03 | 2.39 | 1.65 | 97 | 1008.9 |
| 20260506134035 | 6 | 0 | 0.0 | 1.6 | 0.03 | 2.39 | 1.65 | 97 | 1008.8 |
| 20260506133535 | 6 | 0 | 0.0 | 1.6 | 0.03 | 2.39 | 1.65 | 97 | 1008.9 |
| 20260506133048 | 6 | 0 | 0.0 | 4.8 | 0.03 | 2.39 | 1.65 | 97 | 1008.9 |
| 20260506132535 | 6 | 0 | 0.0 | 4.8 | 0.03 | 2.39 | 1.65 | 97 | 1008.9 |
| 20260506132035 | 6 | 0 | 1.6 | 4.8 | 0.05 | 2.39 | 1.65 | 97 | 1008.9 |
| 20260506131604 | 6 | 93 | 0.0 | 4.8 | 0.05 | 2.39 | 1.65 | 97 | 1009.1 |
| 20260506131035 | 6 | 88 | 0.0 | 4.8 | 0.05 | 2.39 | 1.65 | 97 | 1009.1 |
| 20260506130535 | 6 | 94 | 0.0 | 4.8 | 0.08 | 2.39 | 1.65 | 97 | 1009.1 |
| 20260506130045 | 6 | 0 | 0.0 | 3.2 | 0.05 | 2.36 | 1.63 | 97 | 1009.2 |
| 20260506125535 | 6 | 105 | 0.0 | 3.2 | 0.05 | 2.36 | 1.63 | 97 | 1009.2 |
| 20260506125036 | 6 | 0 | 0.0 | 1.6 | 0.05 | 2.36 | 1.63 | 97 | 1009.1 |
| 20260506124540 | 6 | 0 | 0.0 | 1.6 | 0.05 | 2.36 | 1.63 | 97 | 1009.1 |
| 20260506124037 | 6 | 0 | 0.0 | 3.2 | 0.08 | 2.36 | 1.63 | 97 | 1009.0 |
| 20260506123537 | 6 | 0 | 0.0 | 3.2 | 0.08 | 2.36 | 1.63 | 97 | 1009.1 |
| 20260506123045 | 6 | 0 | 0.0 | 3.2 | 0.08 | 2.36 | 1.63 | 97 | 1009.0 |
| 20260506122536 | 6 | 0 | 0.0 | 3.2 | 0.08 | 2.36 | 1.63 | 97 | 1009.3 |
| 20260506122036 | 6 | 0 | 0.0 | 4.8 | 0.05 | 2.34 | 1.60 | 97 | 1009.1 |
| 20260506121548 | 6 | 0 | 0.0 | 4.8 | 0.08 | 2.34 | 1.60 | 97 | 1009.2 |
| 20260506121035 | 6 | 104 | 0.0 | 3.2 | 0.08 | 2.34 | 1.60 | 97 | 1009.4 |
| 20260506120535 | 6 | 0 | 0.0 | 3.2 | 0.05 | 2.31 | 1.57 | 97 | 1009.3 |
| 20260506120047 | 6 | 0 | 0.0 | 3.2 | 0.08 | 2.31 | 1.57 | 97 | 1009.0 |
| 20260506115537 | 6 | 0 | 0.0 | 3.2 | 0.08 | 2.31 | 1.57 | 97 | 1008.9 |
| 20260506115036 | 6 | 0 | 0.0 | 3.2 | 0.10 | 2.31 | 1.57 | 97 | 1008.9 |
| 20260506114546 | 6 | 0 | 0.0 | 9.7 | 0.10 | 2.31 | 1.57 | 97 | 1008.7 |
| 20260506114036 | 6 | 0 | 1.6 | 9.7 | 0.10 | 2.29 | 1.55 | 97 | 1008.9 |
| 20260506113537 | 6 | 105 | 0.0 | 4.8 | 0.13 | 2.29 | 1.55 | 97 | 1008.8 |
| 20260506113041 | 6 | 0 | 0.0 | 9.7 | 0.13 | 2.29 | 1.55 | 97 | 1008.9 |
| 20260506112536 | 6 | 0 | 1.6 | 9.7 | 0.15 | 2.29 | 1.55 | 97 | 1009.0 |
| 20260506112035 | 6 | 0 | 0.0 | 3.2 | 0.18 | 2.29 | 1.55 | 97 | 1009.0 |
| 20260506111602 | 6 | 0 | 0.0 | 3.2 | 0.18 | 2.26 | 1.52 | 97 | 1009.0 |
| 20260506111035 | 6 | 0 | 0.0 | 3.2 | 0.20 | 2.26 | 1.52 | 97 | 1008.9 |
| 20260506110538 | 6 | 0 | 0.0 | 3.2 | 0.20 | 2.26 | 1.52 | 97 | 1009.0 |
| 20260506110045 | 6 | 0 | 0.0 | 4.8 | 0.20 | 2.24 | 1.47 | 97 | 1009.2 |
| 20260506105536 | 6 | 0 | 0.0 | 4.8 | 0.23 | 2.24 | 1.47 | 97 | 1009.1 |
| 20260506105036 | 6 | 0 | 0.0 | 3.2 | 0.20 | 2.21 | 1.47 | 97 | 1009.2 |
| 20260506104545 | 6 | 0 | 0.0 | 3.2 | 0.20 | 2.21 | 1.47 | 97 | 1009.2 |
| 20260506104035 | 6 | 0 | 0.0 | 4.8 | 0.18 | 2.18 | 1.45 | 97 | 1009.0 |
| 20260506103535 | 6 | 0 | 0.0 | 4.8 | 0.18 | 2.16 | 1.42 | 97 | 1009.4 |
| 20260506103044 | 6 | 0 | 0.0 | 4.8 | 0.18 | 2.16 | 1.42 | 97 | 1009.3 |
| 20260506102535 | 6 | 0 | 0.0 | 3.2 | 0.15 | 2.13 | 1.40 | 97 | 1009.3 |
| 20260506102037 | 6 | 0 | 0.0 | 3.2 | 0.13 | 2.11 | 1.37 | 97 | 1009.7 |
| 20260506101542 | 6 | 0 | 0.0 | 3.2 | 0.13 | 2.08 | 1.32 | 97 | 1009.2 |
| 20260506101036 | 6 | 0 | 0.0 | 3.2 | 0.10 | 2.06 | 1.32 | 97 | 1009.4 |
| 20260506100536 | 6 | 0 | 0.0 | 3.2 | 0.10 | 2.03 | 1.30 | 97 | 1009.0 |
| 20260506100038 | 6 | 0 | 0.0 | 3.2 | 0.10 | 2.03 | 1.30 | 97 | 1008.9 |
| 20260506095536 | 6 | 0 | 0.0 | 0.0 | 0.10 | 2.01 | 1.27 | 97 | 1008.9 |
| 20260506095040 | 6 | 0 | 0.0 | 3.2 | 0.10 | 2.01 | 1.27 | 97 | 1008.9 |
| 20260506094547 | 6 | 0 | 0.0 | 3.2 | 0.13 | 2.01 | 1.27 | 97 | 1008.7 |
| 20260506094039 | 6 | 97 | 0.0 | 3.2 | 0.15 | 2.01 | 1.27 | 97 | 1008.7 |
| 20260506093535 | 6 | 97 | 0.0 | 3.2 | 0.15 | 1.98 | 1.24 | 97 | 1008.5 |
| 20260506093052 | 6 | 0 | 0.0 | 3.2 | 0.15 | 1.98 | 1.24 | 97 | 1008.6 |
| 20260506092535 | 6 | 0 | 0.0 | 0.0 | 0.20 | 1.98 | 1.24 | 97 | 1008.6 |
| 20260506092037 | 6 | 0 | 0.0 | 1.6 | 0.23 | 1.98 | 1.24 | 97 | 1008.7 |
| 20260506091545 | 6 | 0 | 0.0 | 3.2 | 0.23 | 1.96 | 1.22 | 97 | 1008.8 |
| 20260506091036 | 6 | 0 | 0.0 | 3.2 | 0.25 | 1.96 | 1.22 | 97 | 1008.8 |
| 20260506090536 | 6 | 97 | 1.6 | 3.2 | 0.25 | 1.93 | 1.19 | 97 | 1008.5 |
| 20260506090044 | 6 | 0 | 0.0 | 3.2 | 0.28 | 1.93 | 1.19 | 97 | 1008.9 |
| 20260506085535 | 6 | 98 | 0.0 | 3.2 | 0.28 | 1.91 | 1.17 | 97 | 1009.0 |
| 20260506085036 | 6 | 0 | 0.0 | 3.2 | 0.28 | 1.88 | 1.14 | 97 | 1009.2 |
| 20260506084542 | 6 | 92 | 0.0 | 4.8 | 0.28 | 1.88 | 1.14 | 97 | 1009.4 |
| 20260506084036 | 6 | 0 | 0.0 | 4.8 | 0.28 | 1.85 | 1.12 | 97 | 1009.6 |
| 20260506083536 | 6 | 0 | 0.0 | 4.8 | 0.25 | 1.83 | 1.09 | 97 | 1009.7 |
| 20260506083108 | 6 | 0 | 0.0 | 0.0 | 0.28 | 1.83 | 1.09 | 97 | 1009.7 |
| 20260506082536 | 6 | 0 | 0.0 | 0.0 | 0.23 | 1.78 | 1.04 | 97 | 1009.5 |
| 20260506082035 | 6 | 0 | 0.0 | 0.0 | 0.20 | 1.75 | 1.02 | 97 | 1009.7 |
| 20260506081546 | 6 | 0 | 0.0 | 0.0 | 0.20 | 1.73 | 0.99 | 97 | 1009.4 |
| 20260506081036 | 6 | 0 | 0.0 | 0.0 | 0.20 | 1.70 | 0.97 | 97 | 1009.3 |
| 20260506080538 | 6 | 0 | 0.0 | 0.0 | 0.20 | 1.68 | 0.94 | 97 | 1009.5 |
| 20260506073046 | 6 | 0 | 0.0 | 6.4 | 0.28 | 1.57 | 0.81 | 97 | 1009.2 |
| 20260506072535 | 6 | 132 | 0.0 | 6.4 | 0.28 | 1.57 | 0.81 | 97 | 1009.4 |
| 20260506072035 | 6 | 0 | 0.0 | 11.3 | 0.28 | 1.55 | 0.79 | 97 | 1009.4 |
| 20260506071540 | 7 | 0 | 0.0 | 11.3 | 0.30 | 1.55 | 0.79 | 96 | 1009.3 |
| 20260506071035 | 7 | 275 | 0.0 | 9.7 | 0.28 | 1.52 | 0.76 | 96 | 1009.4 |
| 20260506070536 | 7 | 61 | 3.2 | 9.7 | 0.28 | 1.47 | 0.74 | 96 | 1009.4 |
| 20260506062035 | 8 | 0 | 0.0 | 4.8 | 0.23 | 1.27 | 0.51 | 97 | 1009.3 |
| 20260506061544 | 8 | 0 | 0.0 | 4.8 | 0.23 | 1.24 | 0.48 | 97 | 1009.5 |
| 20260506061035 | 8 | 0 | 0.0 | 4.8 | 0.25 | 1.24 | 0.48 | 97 | 1009.4 |
| 20260506060535 | 8 | 0 | 0.0 | 1.6 | 0.25 | 1.22 | 0.46 | 97 | 1009.4 |
| 20260506051035 | 8 | 105 | 0.0 | 4.8 | 0.18 | 0.99 | 0.23 | 96 | 1010.2 |
| 20260506050535 | 8 | 0 | 0.0 | 4.8 | 0.18 | 0.97 | 0.20 | 96 | 1010.3 |
| 20260506045036 | 8 | 95 | 3.2 | 9.7 | 0.18 | 0.91 | 0.15 | 96 | 1010.5 |
| 20260506044546 | 8 | 98 | 1.6 | 4.8 | 0.18 | 0.89 | 0.13 | 97 | 1009.8 |
| 20260506044035 | 8 | 98 | 0.0 | 6.4 | 0.15 | 0.86 | 0.10 | 97 | 1010.2 |
| 20260506043537 | 8 | 0 | 1.6 | 6.4 | 0.13 | 0.84 | 0.08 | 97 | 1010.3 |
| 20260506043043 | 8 | 99 | 1.6 | 4.8 | 0.13 | 0.84 | 0.08 | 96 | 1010.4 |
| 20260506042535 | 8 | 0 | 0.0 | 3.2 | 0.13 | 0.84 | 0.08 | 96 | 1010.3 |
| 20260506042035 | 8 | 0 | 0.0 | 3.2 | 0.10 | 0.81 | 0.05 | 96 | 1010.6 |
| 20260506041541 | 8 | 103 | 0.0 | 0.0 | 0.10 | 0.81 | 0.05 | 96 | 1010.6 |
| 20260506041034 | 8 | 0 | 0.0 | 0.0 | 0.13 | 0.81 | 0.05 | 96 | 1010.5 |